Orbital Elements at Epoch 2459200.5 (2020-Dec-17.0) TDB
Reference: JPL 17 (heliocentric ecliptic J2000)
Element | Value | Uncertainty (1-sigma) | Units |
e | .07008106033864375 | 4.4334e-08 | |
a | 2.963079345459385 | 2.068e-08 | au |
q | 2.755423603062057 | 1.2816e-07 | au |
i | 4.011330435841866 | 4.6058e-06 | deg |
node | 172.7868187351756 | 6.138e-05 | deg |
peri | 35.04296049875468 | 6.9735e-05 | deg |
M | 206.2931278043573 | 3.5838e-05 | deg |
tp | 2459995.933967960761 (2023-Feb-20.43396796) | 0.00018861 | TDB |
period | 1863.002118092621 5.10 | 1.9503e-05 5.34e-08 | d yr |
n | .1932364952803035 | 2.0229e-09 | deg/d |
Q | 3.170735087856713 | 2.2129e-08 | au |
|
| | Orbit Determination Parameters
Additional Information
|